Regional Weather Roundup
Issued by NWS Upton, NY

Current Version | Previous Version | Graphics & Text | Print | Product List | Glossary Off
Versions: 1 2 3 4 5 6 7 8 9 10 11 12 13 14 15 16 17 18 19 20 21 22 23 24 25 26 27 28 29 30 31 32 33 34 35 36 37 38 39 40 41 42 43 44 45 46 47 48 49 50

000
ASUS41 KOKX 170708
RWROKX

REGIONAL WEATHER ROUNDUP
NATIONAL WEATHER SERVICE NEW YORK NY
200 AM EST SUN DEC 17 2017

NOTE: "FAIR" INDICATES FEW OR NO CLOUDS BELOW 12,000 FEET WITH NO
SIGNIFICANT WEATHER AND/OR OBSTRUCTIONS TO VISIBILITY.

NYZ071-072-176-178-NJZ106-104-170800-
NEW YORK CITY METRO AREA

CITY           SKY/WX    TMP DP  RH WIND       PRES   REMARKS
Central Park   CLOUDY    33  20  58 VRB3      30.25R
Bronx Bot Gard   N/A     32  21  64 NW3       30.23R
Bronx Lehman C   N/A     32  21  64 NW6         N/A  WCI  26
LaGuardia APRT CLOUDY    35  20  54 NW7       30.23R WCI  29
Queens College   N/A     34  21  60 NW3         N/A
Kennedy INTL   CLOUDY    34  21  59 N8        30.24R WCI  27
Breezy Point     N/A     34 N/A N/A N6          N/A  WCI  29
Brooklyn Coll    N/A     36  23  60 NW5         N/A  WCI  32
Staten Island    N/A     34  25  69 N5          N/A  WCI  30
Newark/Liberty CLOUDY    33  24  69 N7        30.23R WCI  27
Teterboro      CLOUDY    33  20  58 N6        30.23R WCI  28
$$

NYZ177-179-078>081-170800-
LONG ISLAND NEW YORK

CITY           SKY/WX    TMP DP  RH WIND       PRES   REMARKS
Jones Beach      N/A     34 N/A N/A N8          N/A  WCI  27
Wantagh          N/A     34  23  64 NW3         N/A
Matinecock PT    N/A     36 N/A N/A NW3         N/A
Farmingdale    CLOUDY    33  23  66 CALM      30.23R
MacArthur/ISP  CLOUDY    31  21  66 N7        30.23R WCI  24
Shirley        CLOUDY    31  21  66 N3        30.24R
Mt Sinai Harb    N/A    N/A N/A N/A N6          N/A
Westhampton    CLOUDY    28  17  63 N3        30.24R
East Hampton   FAIR      27  14  58 N6        30.22S WCI  21
Southold         N/A     30  16  55 N9          N/A  WCI  22
Montauk          N/A     31  15  52 NW13      30.23R WCI  21
$$

NYZ052-065-067-170800-
HUDSON VALLEY

CITY           SKY/WX    TMP DP  RH WIND       PRES   REMARKS
White Plains   CLOUDY    30  20  66 N3        30.20R
Larchmont Harb   N/A     32 N/A N/A W5          N/A  WCI  27
Croton On Huds   N/A     32 N/A N/A N2          N/A
Somers           N/A     28  16  59 W1          N/A
Brewster         N/A     19  16  86 CALM        N/A
Newburgh       CLOUDY    27  21  80 NW6       30.21R WCI  20
Montgomery     CLOUDY    28  16  60 CALM      30.20R
Otisville        N/A     27  19  74 W1          N/A
Warwick          N/A     30  21  69 W3          N/A
Suffern          N/A     30  21  69 W2          N/A
Poughkeepsie   MOCLDY    19  15  84 CALM      30.22R
Albany         PTCLDY    14   8  77 CALM      30.24R
$$

NJZ001-105-106-008-010-013-015-019>022-104-170800-
NEW JERSEY

CITY           SKY/WX    TMP DP  RH WIND       PRES   REMARKS
Newark/Liberty CLOUDY    33  24  69 N7        30.23R WCI  27
Teterboro      CLOUDY    33  20  58 N6        30.23R WCI  28
Caldwell       CLOUDY    31  20  63 NE3       30.23R
Somerville     CLOUDY    31  28  89 CALM      30.22R
Linden         CLOUDY    34  22  62 CALM      30.24R
Perth Amboy      N/A     34 N/A N/A N3          N/A
Sussex         CLOUDY    30  21  69 CALM      30.21R
Andover        NOT AVBL
Trenton        CLOUDY    34  27  75 NE5       30.22R WCI  30
Millville      CLEAR     25  23  92 CALM      30.22R
Atlantic City  CLOUDY    31  26  82 CALM      30.23R
Wrightstown    CLOUDY    34  27  77 CALM      30.20R
Toms River     CLOUDY    33  27  78 CALM      30.24R
Belmar         CLOUDY    34  25  69 N5        30.23R WCI  30
$$

PAZ047>061-062-071-170800-
EASTERN PENNSYLVANIA

CITY           SKY/WX    TMP DP  RH WIND       PRES   REMARKS
Philadelphia   CLOUDY    36  28  73 W3        30.23R
Allentown      CLOUDY    33  25  72 NE3       30.21R
Scranton       CLOUDY    27  22  81 CALM      30.18R
$$

CTZ002-004>006-009-010-012-RIZ004-006-007-MAZ004-011-015-170800-
SOUTHERN NEW ENGLAND
 IN CT

CITY           SKY/WX    TMP DP  RH WIND       PRES   REMARKS
Bradley INTL   CLEAR     19  11  70 W7        30.22R WCI  10
Hartford       CLEAR     26  12  55 N9        30.24R WCI  17
Danbury        PTCLDY    18  14  84 CALM      30.22R
Wtrbury/Oxford PTCLDY    15  12  88 CALM      30.19R
Norwalk Harbor   N/A    N/A N/A N/A N8          N/A
Bridgeport     PTCLDY    27  14  58 N5        30.24R WCI  22
Meriden        CLEAR     14  10  84 CALM      30.23R
New Haven      PTCLDY    21  12  68 N3        30.23R
Chester        FAIR      23  10  58 CALM      30.21R
Groton         CLEAR     25  11  55 NW9       30.23R WCI  15
Wilimantic     CLEAR     18  10  71 W5        30.22R WCI  11

 IN RI

CITY           SKY/WX    TMP DP  RH WIND       PRES   REMARKS
Providence     CLEAR     22  13  68 W8        30.22R WCI  12
Block Island   CLEAR     28  12  51 NW15G23   30.22R WCI  16
Westerly       CLEAR     26  13  57 VRB6      30.23R WCI  19
 IN MA

CITY           SKY/WX    TMP DP  RH WIND       PRES   REMARKS
Boston         CLEAR     23   7  50 W10       30.20R WCI  12
Worcester      CLEAR     16   4  59 W6        30.13R WCI   7
Westfield      CLEAR     15  12  88 NW5       30.21R WCI   8
Provincetown   CLEAR     28  11  48 NW18G28   30.18R WCI  15
Nantucket      CLEAR     27  13  55 NW15      30.18R WCI  15
$$

ANZ330-335-338-340-345-350-353-355-170800-
COASTAL MARINE OBSERVATIONS


STATION/POSITION TIME  SKY/WX   TEMP    WIND        PRES    VSBY  WAVE
                                AIR SEA DIR/SP/G                  HT/PER
                 (UTC)          (F)     (DEG/KT/KT) (MB)    (MI)  (FT/S)
NY HARB ENTRANCE NOT AVBL
20 S FIRE ISLAND 0550            38 51  350/ 14/ 17 1022.7          4/ 6
GREAT SOUTH BAY  NOT AVBL
HUDSON CANYON    0550            45 54  300/ 17/ 21 1021.7          7/ 7
KINGS POINT      0630            34 42   10/  7/ 10 1024.2
EXECUTION ROCKS  0630            35     330/  6/  8   N/A
WESTERN LI SOUND NOT AVBL
CENTRAL LI SOUND 0630            31     350/ 12/ 16   N/A           2
ROBBINS REEF     0648            34     360/  9/ 10 1024.2
$$


>>>>>>>>>>>>>>>>>>>>>>>>>>>> KEY <<<<<<<<<<<<<<<<<<<<<<<<<<<
>                                                          <
>     SKY/WX - Sky Condition/Present Weather               <
>     TMP    - Temperature in Fahrenheit                   <
>     DP     - Dew Point in Fahrenheit                     <
>     RH     - Relative Humidity in Percent                <
>     WIND   - Direction (from) and Speed in MPH           <
>     PRES   - Mean Sea Level Pressure (inches of Hg)      <
>     WCI    - Wind Chill Index                            <
>     VSB    - VISIBILITY IN MILES                         <
>     HX     - HEAT INDEX                                  <
>     TC     - TEMPERATURE IN CELSIUS                      <
>     VRB    - VARIABLE WIND DIRECTION                     <
>                                                          <
>>>>>>>>>>>>>>>>>>>>>>>>>>>> KEY <<<<<<<<<<<<<<<<<<<<<<<<<<<



USA.gov is the U.S. government's official web portal to all federal, state and local government web resources and services.